Regional Weather Roundup
Issued by NWS

Home | Current Version | Previous Version | Text Only | Print | Product List | Glossary Off
Versions: 1 2 3 4 5 6 7 8 9 10 11 12 13 14 15 16 17 18 19 20 21 22 23 24 25 26 27 28 29 30 31 32 33 34 35 36 37 38 39 40 41 42 43 44 45 46 47 48 49 50

000
ASUS43 KLSX 261407
RWRMO

WEATHER SUMMARY FOR MISSOURI
NATIONAL WEATHER SERVICE SPRINGFIELD MO
800 AM CST FRI DEC 26 2014

NOTE: "FAIR" INDICATES FEW OR NO CLOUDS BELOW 12,000 FEET WITH NO
       SIGNIFICANT WEATHER AND/OR OBSTRUCTIONS TO VISIBILITY.
       CURRENT SKY AND/OR WEATHER CONDITIONS ARE NOT AVAILABLE FOR
       CHILLICOTHE AND FARMINGTON.

MOZ001>031-035>038-043-044-053-054-261500-
...NORTHERN AND WESTERN MISSOURI...

CITY           SKY/WX    TMP DP  RH WIND       PRES   REMARKS
KANSAS CTY INT CLOUDY    43  35  73 S8        29.90R
KANSAS C DTWN  CLOUDY    48  36  63 S8        29.92R
LEE`S SUMMIT   MOCLDY    42  34  73 S6        29.93R
ST JOSEPH      CLOUDY    36  31  82 NW9       29.91R WCI  29
CHILLICOTHE      N/A     46  34  62 S12       29.94R
KIRKSVILLE     CLOUDY    37  34  89 SE7       29.95R

$$
MOZ066>068-077>081-088>096-101>105-261500-
...SOUTHWEST MISSOURI...

CITY           SKY/WX    TMP DP  RH WIND       PRES   REMARKS
SPRINGFIELD    CLEAR     42  37  82 S15       30.01R
JOPLIN         PTCLDY    48  42  80 S18G24    29.97R

$$
MOZ032>034-039>042-045>050-055>058-069>072-261500-
...CENTRAL MISSOURI...

CITY           SKY/WX    TMP DP  RH WIND       PRES   REMARKS
COLUMBIA       MOCLDY    41  36  82 SE13      30.00R
JEFFERSON CITY PTCLDY    42  35  76 E7        30.02R
ROLLA          CLEAR     41  36  82 S15       30.02S
SEDALIA        MOCLDY    45  36  70 S13       29.97R
WHITEMAN AFB   MOCLDY    43  37  78 S12       29.95R
WARRENSBURG    MOCLDY    41  34  75 S7        29.95R
OSAGE BEACH    CLEAR     43  36  75 S10       30.01R

$$
MOZ051-052-059>065-261500-
...EAST CENTRAL MISSOURI...

CITY           SKY/WX    TMP DP  RH WIND       PRES   REMARKS
ST LOUIS INTL  MOCLDY    43  35  73 S9        30.07R
SPIRIT OF STL  CLEAR     43  36  76 VRB6      30.05S
ST CHARLES     CLEAR     34  33  96 E8        30.06S WCI  27

$$
MOZ072>076-082>087-097>100-106>115-261500-
...SOUTH CENTRAL AND SOUTHEAST MISSOURI...

CITY           SKY/WX    TMP DP  RH WIND       PRES   REMARKS
CAPE GIRARDEAU PTCLDY    39  35  86 S8        30.19R
FARMINGTON     CLEAR     37  34  87 SE8       30.13R
POPLAR BLUFF   MOCLDY    35  31  85 S5        30.18R
WEST PLAINS    CLEAR     37  34  89 S10       30.10R WCI  30

$$


USA.gov is the U.S. government's official web portal to all federal, state and local government web resources and services.